Location: Olsztyn
(53.7767°N, 20.4765°E)
Time: 05:17:18
(UTC+02:00)

BlueWalker 3 - Pass Details

Date: 07 June 2024
Orbit: 480 x 494 km, 53.2° (Epoch: 18 June)

Event Time Altitude Azimuth Distance (km) Brightness Sun altitude
Exits shadow 01:46:38 10° 151° (SSE) 1,637 4.1 -12.0°
Maximum altitude 01:47:40 11° 134° (SE) 1,577 4.2 -11.9°
Drops below altitude 10° 01:48:52 10° 116° (ESE) 1,656 4.5 -11.9°
Sets 01:52:23 0° 81° (E) 2,542 5.9 -11.7°
